Regional Weather Roundup
Issued by NWS

Home | Current Version | Previous Version | Text Only | Print | Product List | Glossary Off
Versions: 1 2 3 4 5 6 7 8 9 10 11 12 13 14 15 16 17 18 19 20 21 22 23 24 25 26 27 28 29 30 31 32 33 34 35 36 37 38 39 40 41 42 43 44 45 46 47 48 49 50

000
ASUS43 KMKX 011400
RWRWI

WISCONSIN REGIONAL WEATHER ROUNDUP
NATIONAL WEATHER SERVICE MILWAUKEE/SULLIVAN WI
800 AM CST WED MAR 01 2017

NOTE: "FAIR" INDICATES FEW OR NO CLOUDS BELOW 12,000 FEET WITH NO
SIGNIFICANT WEATHER AND/OR OBSTRUCTIONS TO VISIBILITY.

WIZ001-002-006>008-014>016-023>028-011500-
NORTHWEST WISCONSIN

CITY           SKY/WX    TMP DP  RH WIND       PRES   REMARKS
SUPERIOR ARPT  CLOUDY    22  15  76 NE6       29.88R WCI  14
ASHLAND        CLOUDY    22  19  89 N13G21    29.85R WCI  10
HAYWARD        CLOUDY    22  18  85 N21G30    29.78R WCI   6
SIREN          CLOUDY    24  21  88 NE13      29.81R WCI  13
CUMBERLAND     CLOUDY    25  21  86 N13G21    29.75R WCI  13
RICE LAKE      LGT SNOW  26  23  89 N12       29.76R WCI  15
CHETEK         LGT SNOW  25  23  92 N10       29.74R VSB 3/4 WCI  15
LADYSMITH      LGT SNOW  26  22  87 N14G20    29.72R VSB 1   WCI  14
EAU CLAIRE     SNOW      27  24  89 N14G24    29.70R VSB 1/4 WCI  16
MENOMONIE      SNOW      27  25  92 NW15      29.73R VSB 1/2 WCI  16
NEW RICHMOND   CLOUDY    25  22  86 N15G21    29.78R WCI  13
OSCEOLA        CLOUDY    26  22  84 N10       29.82R WCI  16
$$

WIZ003>005-009-010-017-018-011500-
NORTH CENTRAL WISCONSIN

CITY           SKY/WX    TMP DP  RH WIND       PRES   REMARKS
MANITOWISH WTR LGT SNOW  20  19  97 N13G21    29.68S VSB 1   WCI   7
ARBOR VITAE    LGT SNOW  22  19  87 N14G22      N/A  WCI   9
WOODRUFF       LGT SNOW  22  19  87 N14G22      N/A  WCI   9
RHINELANDER    LGT SNOW  22  19  89 N14G20    29.64R VSB 3/4 WCI   9
EAGLE RIVER    LGT SNOW  20  16  84 N15       29.64S WCI   7
LAND O LAKES   LGT SNOW  20  17  86 N15G22    29.68R WCI   6
PHILLIPS       LGT SNOW  22  19  91 N14G23    29.67R VSB 1   WCI   9
TOMAHAWK       LGT SNOW  23  19  87 N8G18     29.65R WCI  13
MEDFORD        LGT SNOW  24  21  89 N14G21    29.61S VSB 3/4 WCI  12
MERRILL        NOT AVBL
$$

WIZ029-030-035-036-043>047-011500-
CENTRAL WISCONSIN

CITY           SKY/WX    TMP DP  RH WIND       PRES   REMARKS
WAUSAU         LGT SNOW  26  22  84 N10G21    29.58S FOG     WCI  16
MOSINEE        NOT AVBL
MARSHFIELD     SNOW      26  23  88 N18G25    29.60R VSB 1/4 WCI  13
STEVENS POINT  MIX PCPN  27  26  95 N8G17     29.58R WCI  19
WAUPACA        LGT SNOW  33  31  92 N7        29.56R WCI  27
WAUTOMA        NOT AVBL
WISC RAPIDS    LGT SNOW  29  27  92 N15       29.59F FOG     WCI  18
CAMP DOUGLAS   NOT AVBL
$$

WIZ011>013-019>022-031-037>040-048>050-011500-
NORTHEAST WISCONSIN

CITY           SKY/WX    TMP DP  RH WIND       PRES   REMARKS
ANTIGO         LGT SNOW  24  21  91 N22       29.57S VSB 1   WCI   8
SHAWANO        LGT SNOW  31  27  85 N21G29    29.56S WCI  18
OCONTO         CLOUDY    28  25  89 N13G24    29.54S WCI  17
STURGEON BAY   LGT SNOW  28  26  92 N23G32    29.52S FOG     WCI  14
GREEN BAY      LGT SNOW  30  27  88 N18G32    29.52S FOG     WCI  18
MANITOWOC      NOT AVBL
APPLETON       LGT SNOW  28  28 100 N17G29    29.52R WCI  16
CLINTONVILLE   LGT SNOW  30  28  93 N12G18    29.56R VSB 3/4 WCI  21
OSHKOSH        LGT SNOW  31  28  89 N12       29.53R VSB 1   WCI  22
$$

WIZ032>034-041-042-053>061-011500-
SOUTHWEST WISCONSIN

CITY           SKY/WX    TMP DP  RH WIND       PRES   REMARKS
LA CROSSE      SNOW      31  29  92 N14       29.66R VSB 1/4 WCI  21
SPARTA         LGT SNOW  31  30  98 NW12      29.64R WCI  21
VIROQUA        CLOUDY    32  32 100 N10       29.59R WCI  24
BOSCOBEL       LGT SNOW  34  32  92 W7        29.62R FOG     WCI  28
PRAIRIE DU CHI LGT RAIN  34  33  96 NW7       29.63R WCI  28
PLATTEVILLE    CLOUDY    34  34 100 W8        29.57R WCI  27
$$

WIZ056-057-062-063-064-067-068-011500-
SOUTH CENTRAL WISCONSIN

CITY           SKY/WX    TMP DP  RH WIND       PRES   REMARKS
REEDSBURG      LGT SNOW  32  32 100 NW6       29.56S VSB 3/4 WCI  26
BARABOO/DELLS  LGT SNOW  32  32 100 N6        29.55F VSB 3/4 WCI  26
LONE ROCK      LGT SNOW  34  30  86 NW8       29.58R FOG     WCI  27
MINERAL POINT  LGT SNOW  34  34 100 NW7       29.54F WCI  28
MADISON        LGT SNOW  32  32 100 NW8       29.53S VSB 3/4 WCI  25
MIDDLETON      CLOUDY    34  34 100 NW6       29.54S VSB 3/4 WCI  29
WATERTOWN      LGT RAIN  33  33 100 NW8       29.51R WCI  26
MONROE         LGT SNOW  34  34 100 N6        29.52R WCI  29
JANESVILLE     CLOUDY    36  36 100 NW8       29.51R FOG     WCI  29
$$

WIZ051-052-058>065-066-070>072-011500-
SOUTHEAST WISCONSIN

CITY           SKY/WX    TMP DP  RH WIND       PRES   REMARKS
MILWAUKEE      DRIZZLE   37  34  89 N12       29.46F WCI  29
WAUKESHA       CLOUDY    34  34 100 N6        29.49R FOG     WCI  29
MILWAUKEE/TIMM DRIZZLE   36  32  87 N7        29.48S WCI  30
RACINE         CLOUDY    36  34  92 N17G25    29.46F WCI  26
KENOSHA        CLOUDY    37  35  92 N13G20    29.46F FOG     WCI  29
FOND DU LAC    HVY SNOW  32  29  88 N15       29.53R VSB 1/4 WCI  22
SHEBOYGAN      RAIN      33  30  88 NW14G20   29.49R FOG     WCI  23
WEST BEND      DRIZZLE   34  34 100 N7        29.47S WCI  28
JUNEAU         LGT SNOW  32  31  98 MISG      29.52R
$$

LSZ147-162-011500-
LAKE SUPERIOR

STATION/POSITION TIME  TEMP    WIND        PRES    WAVE
                       AIR SEA DIR/SP/G            HT/PER
                 (UTC) (F)     (DEG/KT/KT) (MB)    (FT/S)
DEVILS ISLAND    1300   21      30/ 21/ 23 1012.8R
PORT WING        1340   23      30/ 15/ 20 1011.9R
SAXON HARBOR     1340   26      30/ 20/ 25 1010.2R
$$

LMZ867-665-643>646-011500-
LAKE MICHIGAN

STATION/POSITION TIME  TEMP    WIND        PRES    WAVE
                       AIR SEA DIR/SP/G            HT/PER
                 (UTC) (F)     (DEG/KT/KT) (MB)    (FT/S)
CHAMBERS ISLAND  1340   28     340/ 23/ 28 1000.3S
NORTHPORT PIER   1340   28     350/ 25/ 31 1000.7S
SISTER BAY       1305   28      20/ 23/ 30   N/A
KEWAUNEE LAKESHO 1330   30      10/ 14/ 19  998.5F
SHEBOYGAN LAKESH 1300   34      10/ 26/ 28  998.0F
PORT WASHINGTON  1330   35      10/  8/ 11  999.0F
MILWAUKEE LAKESH 1330   36     350/ 12/ 17   N/A
KENOSHA   LAKESH 1300   36     360/ 16/ 23  998.0
$$

TC  - TEMPERATURE IN CELSIUS
VSB - VISIBILITY IN STATUTE MILES
WCI - WIND CHILL INDEX
HX  - HEAT INDEX




USA.gov is the U.S. government's official web portal to all federal, state and local government web resources and services.